Hourly Data Report for October 07, 2016

All times are specified in Local Standard Time (LST). Add 1 hour to adjust for Daylight Saving Time where and when it is observed.

IQALUIT CLIMATE
NUNAVUT

63°44'50.000" N
68°32'40.000" W
33.50 m
2402592
71321
XFB

Download Data

Hourly Data (October 2016)
Hourly Data Report for October 7, 2016
Temp Definition
°C
Dew Point Temp Definition
°C
Rel Hum Definition
%
Wind Dir Definition
10's deg

Wind Spd Definition
km/h
Visibility Definition
km
Stn Press Definition
kPa
Hmdx Definition


Wind Chill Definition


Weather Definition


TIME
00:00 -2.8 -5.8 80 35 22   101.34   -9 LegendNANA
01:00 -2.9 -5.9 80 34 18   101.41   -9 LegendNANA
02:00 -2.7 -5.9 78 35 18   101.46   -8 LegendNANA
03:00 -2.9 -5.7 81 36 24   101.52   -10 LegendNANA
04:00 -2.9 -6.3 77 34 19   101.57   -9 LegendNANA
05:00 -2.8 -5.6 81 31 13   101.59   -7 LegendNANA
06:00 -3.2 -5.3 86 33 12   101.64   -8 LegendNANA
07:00 -3.1 -4.9 87 32 9   101.68   -7 LegendNANA
08:00 -1.9 -4.0 86 32 12   101.75   -6 LegendNANA
09:00 -1.3 -4.1 81 33 15   101.79   -6 LegendNANA
10:00 -0.9 -3.6 82 34 15   101.80   -6 LegendNANA
11:00 -0.4 -3.5 80 35 15   101.84   -5 LegendNANA
12:00 0.0 -3.2 79 36 14   101.85   -4 LegendNANA
13:00 0.4 -4.8 68 36 13   101.87     LegendNANA
14:00 0.3 -5.4 66 36 15   101.92     LegendNANA
15:00 0.5 -5.5 64 36 12   101.93     LegendNANA
16:00 -0.2 -4.9 70 36 12   101.93   -4 LegendNANA
17:00 -2.2 -5.1 81 36 9   101.93   -6 LegendNANA
18:00
19:00 -2.9 -4.7 88 34 9   101.90   -6 LegendNANA
20:00 -3.1 -4.8 88 32 12   101.91   -8 LegendNANA
21:00 -2.3 -3.7 90 34 12   101.87   -7 LegendNANA
22:00 -2.4 -4.5 85 36 9   101.87   -6 LegendNANA
23:00 -4.1 -6.0 86 36 12   101.79   -9 LegendNANA

Notes on Data Quality.

Legend

  • E = Estimated
  • M = Missing
  • NA = Not Available
  • ‡ = Partner data that is not subject to review by the National Climate Archives
Date modified: